Satellite-Ground Cal/Val Site Overpasses Predictions

Prediction of Satellite NPP Overpassing Cal/Val Site: Antarctic Dome C

Ground Cal/Val Site Location: Latitude: -75.10, Longitude: 123.35; Satellite-Ground Site NADIR distance within 100 km.

Table of predicted overpasses for the next 14.0 days since TLE Epoch: 9/8/2013
Interval Starting Time Ending Time Minimum Distance Time Minimum Distance (km)
1 09/10/2013 14:49:17 09/10/2013 14:49:46 09/10/2013 14:49:32 10.80
2 09/12/2013 07:32:09 09/12/2013 07:32:39 09/12/2013 07:32:24 1.82
3 09/15/2013 14:55:40 09/15/2013 14:56:08 09/15/2013 14:55:54 25.87
4 09/16/2013 14:36:58 09/16/2013 14:37:14 09/16/2013 14:37:06 81.20
5 09/17/2013 07:38:31 09/17/2013 07:38:59 09/17/2013 07:38:45 34.35
6 09/18/2013 07:19:47 09/18/2013 07:20:06 09/18/2013 07:19:57 75.60
7 09/20/2013 15:02:04 09/20/2013 15:02:27 09/20/2013 15:02:16 63.09


NCC Satellite Cal/Val Overpasses Prediction Service
